Time,TemperatureF,DewpointF,PressureIn,WindDirection,WindDirectionDegrees,WindSpeedMPH,WindSpeedGustMPH,Humidity,HourlyPrecipIn,Conditions,Clouds,dailyrainin,SolarRadiationWatts/m^2,SoftwareType,DateUTC
2013-08-26 00:02:00,63.1,58.5,29.93,West,281,4.7,5.0,85,0.00,OVC,,0.00,0.0,WeatherDisplay:10.37,2013-08-26 07:02:00,
2013-08-26 00:07:00,63.0,58.4,29.93,WNW,294,2.2,9.2,85,0.00,OVC,,0.00,0.0,WeatherDisplay:10.37,2013-08-26 07:07:00,
2013-08-26 00:12:00,63.0,58.7,29.93,WNW,300,3.5,3.5,86,0.00,OVC,,0.00,0.0,WeatherDisplay:10.37,2013-08-26 07:12:00,
2013-08-26 00:17:00,62.9,58.6,29.94,WNW,296,2.4,3.5,86,0.00,OVC,,0.00,0.0,WeatherDisplay:10.37,2013-08-26 07:17:00,
2013-08-26 00:22:00,62.9,58.6,29.93,WNW,291,2.8,3.5,86,0.00,OVC,,0.00,0.0,WeatherDisplay:10.37,2013-08-26 07:22:00,
2013-08-26 00:27:00,62.9,58.6,29.93,WNW,289,4.4,6.9,86,0.00,OVC,,0.00,0.0,WeatherDisplay:10.37,2013-08-26 07:27:00,
2013-08-26 00:33:00,62.8,58.5,29.93,West,264,1.1,3.5,86,0.00,OVC,,0.00,0.0,WeatherDisplay:10.37,2013-08-26 07:33:00,
2013-08-26 00:38:00,62.8,58.5,29.93,WNW,289,5.0,5.8,86,0.00,OVC,,0.00,0.0,WeatherDisplay:10.37,2013-08-26 07:38:00,
2013-08-26 00:43:00,62.8,58.5,29.93,WNW,288,2.7,4.0,86,0.00,OVC,,0.00,0.0,WeatherDisplay:10.37,2013-08-26 07:43:00,
2013-08-26 00:48:00,62.8,58.5,29.93,WNW,294,1.7,3.5,86,0.00,OVC,,0.00,0.0,WeatherDisplay:10.37,2013-08-26 07:48:00,
2013-08-26 00:53:00,62.8,58.5,29.94,WNW,296,1.6,3.5,86,0.00,OVC,,0.00,0.0,WeatherDisplay:10.37,2013-08-26 07:53:00,
2013-08-26 00:58:00,62.7,58.5,29.94,WNW,296,5.2,8.1,86,0.00,OVC,,0.00,0.0,WeatherDisplay:10.37,2013-08-26 07:58:00,
2013-08-26 01:03:00,62.6,58.0,29.94,WNW,294,4.5,9.2,85,0.00,OVC,,0.00,0.0,WeatherDisplay:10.37,2013-08-26 08:03:00,
2013-08-26 01:08:00,62.6,58.0,29.94,West,280,3.3,5.8,85,0.00,OVC,,0.00,0.0,WeatherDisplay:10.37,2013-08-26 08:08:00,
2013-08-26 01:13:00,62.6,58.0,29.94,WNW,287,2.2,3.5,85,0.00,OVC,,0.00,0.0,WeatherDisplay:10.37,2013-08-26 08:13:00,
2013-08-26 01:18:00,62.5,57.9,29.94,West,260,1.0,4.6,85,0.00,OVC,,0.00,0.0,WeatherDisplay:10.37,2013-08-26 08:18:00,
2013-08-26 01:23:00,62.5,57.9,29.94,WNW,289,4.6,5.8,85,0.00,OVC,,0.00,0.0,WeatherDisplay:10.37,2013-08-26 08:23:00,
2013-08-26 01:28:00,62.4,58.2,29.94,WNW,291,3.8,4.6,86,0.00,OVC,,0.00,0.0,WeatherDisplay:10.37,2013-08-26 08:28:00,
2013-08-26 01:33:00,62.4,58.2,29.94,WNW,298,5.2,6.9,86,0.00,OVC,,0.00,0.0,WeatherDisplay:10.37,2013-08-26 08:33:00,
2013-08-26 01:38:00,62.4,58.2,29.94,SW,215,3.4,5.8,86,0.00,OVC,,0.00,0.0,WeatherDisplay:10.37,2013-08-26 08:38:00,
2013-08-26 01:43:00,62.3,58.1,29.94,WNW,286,5.2,9.2,86,0.00,OVC,,0.00,0.0,WeatherDisplay:10.37,2013-08-26 08:43:00,
2013-08-26 01:48:00,62.2,58.0,29.94,WNW,290,3.9,5.8,86,0.00,OVC,,0.00,0.0,WeatherDisplay:10.37,2013-08-26 08:48:00,
2013-08-26 01:53:00,62.2,58.0,29.94,WSW,243,2.9,4.6,86,0.00,OVC,,0.00,0.0,WeatherDisplay:10.37,2013-08-26 08:53:00,
2013-08-26 01:58:00,62.1,57.9,29.94,WNW,295,4.6,5.8,86,0.00,OVC,,0.00,0.0,WeatherDisplay:10.37,2013-08-26 08:58:00,
2013-08-26 02:03:00,62.1,57.9,29.94,West,263,4.3,10.4,86,0.00,OVC,,0.00,0.0,WeatherDisplay:10.37,2013-08-26 09:03:00,
2013-08-26 02:08:00,61.9,57.7,29.94,WNW,287,4.5,9.2,86,0.00,OVC,,0.00,0.0,WeatherDisplay:10.37,2013-08-26 09:08:00,
2013-08-26 02:13:00,61.8,57.6,29.94,WNW,286,5.0,10.4,86,0.00,OVC,,0.00,0.0,WeatherDisplay:10.37,2013-08-26 09:13:00,
2013-08-26 02:18:00,61.7,57.5,29.95,West,274,6.0,8.1,86,0.00,OVC,,0.00,0.0,WeatherDisplay:10.37,2013-08-26 09:18:00,
2013-08-26 02:23:00,61.5,57.6,29.94,WNW,283,4.2,5.0,87,0.00,OVC,,0.00,0.0,WeatherDisplay:10.37,2013-08-26 09:23:00,
2013-08-26 02:28:00,61.5,57.6,29.94,WNW,297,3.6,3.6,87,0.00,OVC,,0.00,0.0,WeatherDisplay:10.37,2013-08-26 09:28:00,
2013-08-26 02:33:00,61.4,57.5,29.94,West,267,2.9,4.6,87,0.00,OVC,,0.00,0.0,WeatherDisplay:10.37,2013-08-26 09:33:00,
2013-08-26 02:38:00,61.4,57.5,29.94,WNW,289,3.7,5.8,87,0.00,OVC,,0.00,0.0,WeatherDisplay:10.37,2013-08-26 09:38:00,
2013-08-26 02:43:00,61.4,57.5,29.95,WSW,239,6.2,6.2,87,0.00,OVC,,0.00,0.0,WeatherDisplay:10.37,2013-08-26 09:43:00,
2013-08-26 02:48:00,61.3,57.4,29.95,West,280,5.8,6.9,87,0.00,OVC,,0.00,0.0,WeatherDisplay:10.37,2013-08-26 09:48:00,
2013-08-26 02:53:00,61.3,57.4,29.95,WSW,242,3.2,4.0,87,0.00,OVC,,0.00,0.0,WeatherDisplay:10.37,2013-08-26 09:53:00,
2013-08-26 02:58:00,61.3,57.7,29.95,WNW,299,4.2,5.8,88,0.00,OVC,,0.00,0.0,WeatherDisplay:10.37,2013-08-26 09:58:00,
2013-08-26 03:03:00,61.2,57.6,29.95,WNW,286,3.3,5.8,88,0.00,OVC,,0.00,0.0,WeatherDisplay:10.37,2013-08-26 10:03:00,
2013-08-26 03:08:00,61.1,57.5,29.95,WNW,285,3.8,5.0,88,0.00,OVC,,0.00,0.0,WeatherDisplay:10.37,2013-08-26 10:08:00,
2013-08-26 03:13:00,60.9,57.3,29.95,WNW,287,5.7,10.4,88,0.00,OVC,,0.00,0.0,WeatherDisplay:10.37,2013-08-26 10:13:00,
2013-08-26 03:18:00,60.8,57.2,29.95,WNW,288,6.0,9.2,88,0.00,OVC,,0.00,0.0,WeatherDisplay:10.37,2013-08-26 10:18:00,
2013-08-26 03:23:00,60.8,57.5,29.95,WNW,289,0.6,3.5,89,0.00,OVC,,0.00,0.0,WeatherDisplay:10.37,2013-08-26 10:23:00,
2013-08-26 03:28:00,60.8,57.5,29.95,West,266,1.4,3.5,89,0.00,OVC,,0.00,0.0,WeatherDisplay:10.37,2013-08-26 10:28:00,
2013-08-26 03:33:00,60.8,57.5,29.95,West,265,2.0,3.5,89,0.00,OVC,,0.00,0.0,WeatherDisplay:10.37,2013-08-26 10:33:00,
2013-08-26 03:38:00,60.8,57.5,29.95,SW,231,3.7,9.2,89,0.00,OVC,,0.00,0.0,WeatherDisplay:10.37,2013-08-26 10:38:00,
2013-08-26 03:43:00,60.8,57.5,29.95,West,275,2.8,3.0,89,0.00,OVC,,0.00,0.0,WeatherDisplay:10.37,2013-08-26 10:43:00,
2013-08-26 03:48:00,60.7,57.4,29.95,West,277,1.0,3.5,89,0.00,OVC,,0.00,0.0,WeatherDisplay:10.37,2013-08-26 10:48:00,
2013-08-26 03:53:00,60.7,57.4,29.95,WSW,242,2.9,4.0,89,0.00,OVC,,0.00,0.0,WeatherDisplay:10.37,2013-08-26 10:53:00,
2013-08-26 03:58:00,60.7,57.1,29.95,WSW,247,3.4,4.6,88,0.00,OVC,,0.00,0.0,WeatherDisplay:10.37,2013-08-26 10:58:00,
2013-08-26 04:04:00,60.7,57.1,29.95,SW,221,3.5,6.0,88,0.00,OVC,,0.00,0.0,WeatherDisplay:10.37,2013-08-26 11:04:00,
2013-08-26 04:09:00,60.7,57.1,29.95,SW,221,1.3,3.0,88,0.00,OVC,,0.00,0.0,WeatherDisplay:10.37,2013-08-26 11:09:00,
2013-08-26 04:14:00,60.7,57.1,29.95,SW,225,2.1,3.5,88,0.00,OVC,,0.00,0.0,WeatherDisplay:10.37,2013-08-26 11:14:00,
2013-08-26 04:19:00,60.8,57.2,29.95,SW,225,1.7,3.5,88,0.00,OVC,,0.00,0.0,WeatherDisplay:10.37,2013-08-26 11:19:00,
2013-08-26 04:24:00,60.8,57.2,29.96,SW,226,2.2,4.0,88,0.00,OVC,,0.00,0.0,WeatherDisplay:10.37,2013-08-26 11:24:00,
2013-08-26 04:29:00,60.8,57.2,29.96,SW,225,3.3,4.6,88,0.00,OVC,,0.00,0.0,WeatherDisplay:10.37,2013-08-26 11:29:00,
2013-08-26 04:34:00,60.8,57.2,29.96,SW,224,2.2,3.5,88,0.00,OVC,,0.00,0.0,WeatherDisplay:10.37,2013-08-26 11:34:00,
2013-08-26 04:39:00,60.9,57.6,29.96,SW,224,2.2,3.5,89,0.00,OVC,,0.00,0.0,WeatherDisplay:10.37,2013-08-26 11:39:00,
2013-08-26 04:44:00,60.9,57.6,29.96,SW,223,1.6,4.6,89,0.00,OVC,,0.00,0.0,WeatherDisplay:10.37,2013-08-26 11:44:00,
2013-08-26 04:49:00,60.9,57.6,29.96,SW,225,1.7,4.6,89,0.00,OVC,,0.00,0.0,WeatherDisplay:10.37,2013-08-26 11:49:00,
2013-08-26 04:54:00,60.8,57.5,29.96,SW,216,3.2,3.5,89,0.00,OVC,,0.00,0.0,WeatherDisplay:10.37,2013-08-26 11:54:00,
2013-08-26 04:59:00,60.8,57.5,29.96,SW,216,1.4,3.5,89,0.00,OVC,,0.00,0.0,WeatherDisplay:10.37,2013-08-26 11:59:00,
2013-08-26 05:04:00,60.7,57.7,29.96,SW,216,3.0,3.5,90,0.00,OVC,,0.00,0.0,WeatherDisplay:10.37,2013-08-26 12:04:00,
2013-08-26 05:09:00,60.7,57.7,29.96,SW,216,1.2,3.5,90,0.00,OVC,,0.00,0.0,WeatherDisplay:10.37,2013-08-26 12:09:00,
2013-08-26 05:14:00,60.6,58.0,29.96,SW,216,2.7,3.5,91,0.00,OVC,,0.00,0.0,WeatherDisplay:10.37,2013-08-26 12:14:00,
2013-08-26 05:19:00,60.6,58.0,29.96,SW,216,1.6,3.5,91,0.00,OVC,,0.00,0.0,WeatherDisplay:10.37,2013-08-26 12:19:00,
2013-08-26 05:24:00,60.6,58.0,29.97,SW,216,1.9,3.5,91,0.00,OVC,,0.00,0.0,WeatherDisplay:10.37,2013-08-26 12:24:00,
2013-08-26 05:29:00,60.6,58.0,29.97,SW,216,2.6,3.5,91,0.00,OVC,,0.00,0.0,WeatherDisplay:10.37,2013-08-26 12:29:00,
2013-08-26 05:34:00,60.6,58.0,29.97,SW,216,0.0,1.2,91,0.00,OVC,,0.00,0.0,WeatherDisplay:10.37,2013-08-26 12:34:00,
2013-08-26 05:39:00,60.6,58.0,29.97,SW,216,2.0,4.0,91,0.00,OVC,,0.00,0.0,WeatherDisplay:10.37,2013-08-26 12:39:00,
2013-08-26 05:44:00,60.5,57.9,29.97,SW,216,1.7,3.5,91,0.00,OVC,,0.00,0.0,WeatherDisplay:10.37,2013-08-26 12:44:00,
2013-08-26 05:49:00,60.5,58.2,29.97,SW,216,0.0,0.0,92,0.00,OVC,,0.00,0.0,WeatherDisplay:10.37,2013-08-26 12:49:00,
2013-08-26 05:54:00,60.5,58.2,29.97,SW,216,2.2,3.5,92,0.00,OVC,,0.00,0.0,WeatherDisplay:10.37,2013-08-26 12:54:00,
2013-08-26 05:59:00,60.5,58.2,29.97,SW,216,1.1,4.0,92,0.00,OVC,,0.00,0.0,WeatherDisplay:10.37,2013-08-26 12:59:00,
2013-08-26 06:04:00,60.5,58.2,29.97,SW,216,3.3,4.6,92,0.00,OVC,,0.00,0.0,WeatherDisplay:10.37,2013-08-26 13:04:00,
2013-08-26 06:09:00,60.4,58.1,29.97,SW,216,1.0,2.3,92,0.00,OVC,,0.00,0.0,WeatherDisplay:10.37,2013-08-26 13:09:00,
2013-08-26 06:14:00,60.4,58.4,29.97,SW,216,0.6,2.3,93,0.00,OVC,,0.00,0.0,WeatherDisplay:10.37,2013-08-26 13:14:00,
2013-08-26 06:19:00,60.4,58.4,29.98,SW,216,0.1,3.5,93,0.00,OVC,,0.00,0.0,WeatherDisplay:10.37,2013-08-26 13:19:00,
2013-08-26 06:24:00,60.3,58.3,29.97,SW,216,0.3,2.0,93,0.00,OVC,,0.00,0.0,WeatherDisplay:10.37,2013-08-26 13:24:00,
2013-08-26 06:29:00,60.2,58.2,29.97,SW,216,1.9,3.5,93,0.00,OVC,,0.00,0.0,WeatherDisplay:10.37,2013-08-26 13:29:00,
2013-08-26 06:34:00,60.1,57.8,29.97,West,274,3.4,4.6,92,0.01,RA,,0.01,0.0,WeatherDisplay:10.37,2013-08-26 13:34:00,
2013-08-26 06:39:00,60.0,58.0,29.97,West,280,3.1,3.5,93,0.01,RA,,0.01,0.0,WeatherDisplay:10.37,2013-08-26 13:39:00,
2013-08-26 06:44:00,59.9,57.9,29.97,WNW,289,4.0,5.8,93,0.01,OVC,,0.01,7.0,WeatherDisplay:10.37,2013-08-26 13:44:00,
2013-08-26 06:49:00,59.8,57.8,29.97,WNW,289,1.8,3.5,93,0.01,OVC,,0.01,9.0,WeatherDisplay:10.37,2013-08-26 13:49:00,
2013-08-26 06:54:00,59.7,57.7,29.97,WNW,298,3.1,4.0,93,0.01,OVC,,0.01,11.0,WeatherDisplay:10.37,2013-08-26 13:54:00,
2013-08-26 06:59:00,59.7,57.7,29.98,WNW,294,2.6,4.0,93,0.01,OVC,,0.01,14.0,WeatherDisplay:10.37,2013-08-26 13:59:00,
2013-08-26 07:04:00,59.8,57.8,29.98,WNW,296,2.2,3.5,93,0.01,OVC,,0.01,23.0,WeatherDisplay:10.37,2013-08-26 14:04:00,
2013-08-26 07:09:00,59.8,57.8,29.98,West,267,0.4,2.0,93,0.01,OVC,,0.01,25.0,WeatherDisplay:10.37,2013-08-26 14:09:00,
2013-08-26 07:14:00,59.9,57.6,29.98,NW,306,1.8,4.6,92,0.01,OVC,,0.01,28.0,WeatherDisplay:10.37,2013-08-26 14:14:00,
2013-08-26 07:19:00,59.8,57.5,29.98,WNW,287,2.1,4.6,92,0.01,OVC,,0.01,33.0,WeatherDisplay:10.37,2013-08-26 14:19:00,
2013-08-26 07:24:00,59.9,57.6,29.98,NW,324,0.0,0.0,92,0.01,OVC,,0.01,47.0,WeatherDisplay:10.37,2013-08-26 14:24:00,
2013-08-26 07:29:00,60.0,57.7,29.98,WNW,296,2.0,3.5,92,0.01,OVC,,0.01,44.0,WeatherDisplay:10.37,2013-08-26 14:29:00,
2013-08-26 07:34:00,60.0,57.4,29.98,NW,311,0.5,3.5,91,0.00,OVC,,0.01,69.0,WeatherDisplay:10.37,2013-08-26 14:34:00,
2013-08-26 07:39:00,60.0,57.4,29.98,NW,310,3.0,3.5,91,0.00,OVC,,0.01,88.0,WeatherDisplay:10.37,2013-08-26 14:39:00,
2013-08-26 07:44:00,60.0,57.4,29.98,WNW,293,4.1,5.8,91,0.00,OVC,,0.01,79.0,WeatherDisplay:10.37,2013-08-26 14:44:00,
2013-08-26 07:49:00,60.1,57.2,29.98,WNW,302,0.0,2.3,90,0.00,OVC,,0.01,79.0,WeatherDisplay:10.37,2013-08-26 14:49:00,
2013-08-26 07:54:00,60.3,57.4,29.98,NNW,331,0.1,3.5,90,0.00,OVC,,0.01,74.0,WeatherDisplay:10.37,2013-08-26 14:54:00,
2013-08-26 07:59:00,60.4,57.5,29.99,NW,312,0.7,2.3,90,0.00,OVC,,0.01,79.0,WeatherDisplay:10.37,2013-08-26 14:59:00,
2013-08-26 08:04:00,60.6,57.7,29.99,WSW,242,3.3,10.0,90,0.00,OVC,,0.01,69.0,WeatherDisplay:10.37,2013-08-26 15:04:00,
2013-08-26 08:09:00,60.7,57.7,29.99,SW,231,5.1,6.0,90,0.00,OVC,,0.01,69.0,WeatherDisplay:10.37,2013-08-26 15:09:00,
2013-08-26 08:15:00,60.8,57.5,29.99,WSW,254,1.0,7.0,89,0.00,OVC,,0.01,81.0,WeatherDisplay:10.37,2013-08-26 15:15:00,
2013-08-26 08:20:00,60.9,57.6,29.99,West,273,1.0,5.0,89,0.00,OVC,,0.01,111.0,WeatherDisplay:10.37,2013-08-26 15:20:00,
2013-08-26 08:25:00,60.8,57.6,29.99,WNW,288,2.0,6.0,89,0.00,BKN,,0.01,114.0,WeatherDisplay:10.37,2013-08-26 15:25:00,
2013-08-26 08:30:00,60.8,57.5,29.99,WSW,239,1.1,4.6,89,0.00,BKN,,0.01,135.0,WeatherDisplay:10.37,2013-08-26 15:30:00,
2013-08-26 08:34:00,60.8,57.5,29.99,WSW,253,1.0,5.0,89,0.00,BKN,,0.01,134.0,WeatherDisplay:10.37,2013-08-26 15:34:00,
2013-08-26 08:39:00,60.9,57.6,29.99,WSW,244,2.0,3.5,89,0.00,BKN,,0.01,135.0,WeatherDisplay:10.37,2013-08-26 15:39:00,
2013-08-26 08:45:00,61.0,57.8,29.99,West,268,3.0,7.0,89,0.00,BKN,,0.01,97.0,WeatherDisplay:10.37,2013-08-26 15:45:00,
2013-08-26 08:50:00,61.0,57.7,29.99,WSW,247,1.2,3.5,89,0.00,BKN,,0.01,102.0,WeatherDisplay:10.37,2013-08-26 15:50:00,
2013-08-26 08:55:00,61.1,57.8,30.00,SW,234,3.5,5.0,89,0.00,BKN,,0.01,118.0,WeatherDisplay:10.37,2013-08-26 15:55:00,
2013-08-26 09:00:00,61.1,57.8,29.99,SW,232,5.7,9.2,89,0.00,BKN,,0.01,130.0,WeatherDisplay:10.37,2013-08-26 16:00:00,
2013-08-26 09:05:00,61.2,57.9,29.99,WSW,239,2.8,5.8,89,0.00,BKN,,0.01,121.0,WeatherDisplay:10.37,2013-08-26 16:05:00,
2013-08-26 09:10:00,61.1,57.8,29.99,West,274,3.1,4.6,89,0.00,BKN,,0.01,134.0,WeatherDisplay:10.37,2013-08-26 16:10:00,
2013-08-26 09:15:00,61.1,57.8,29.99,WSW,256,2.2,4.6,89,0.00,BKN,,0.01,134.0,WeatherDisplay:10.37,2013-08-26 16:15:00,
2013-08-26 09:20:00,61.0,57.7,29.99,WSW,258,3.0,5.8,89,0.00,BKN,,0.01,160.0,WeatherDisplay:10.37,2013-08-26 16:20:00,
2013-08-26 09:25:00,60.9,57.6,30.00,WSW,239,4.2,6.9,89,0.00,BKN,,0.01,172.0,WeatherDisplay:10.37,2013-08-26 16:25:00,
2013-08-26 09:30:00,60.8,57.2,30.00,WNW,287,4.4,6.9,88,0.00,BKN,,0.01,216.0,WeatherDisplay:10.37,2013-08-26 16:30:00,
2013-08-26 09:35:00,60.8,57.5,30.00,SW,223,4.8,6.9,89,0.00,BKN,,0.01,248.0,WeatherDisplay:10.37,2013-08-26 16:35:00,
2013-08-26 09:40:00,61.0,57.7,30.00,West,277,4.7,10.4,89,0.00,BKN,,0.01,176.0,WeatherDisplay:10.37,2013-08-26 16:40:00,
2013-08-26 09:45:00,60.9,57.0,30.00,West,263,3.2,5.8,87,0.00,BKN,,0.01,192.0,WeatherDisplay:10.37,2013-08-26 16:45:00,
2013-08-26 09:50:00,60.9,57.3,30.00,WNW,291,4.6,7.0,88,0.00,BKN,,0.01,214.0,WeatherDisplay:10.37,2013-08-26 16:50:00,
2013-08-26 09:55:00,60.7,57.1,30.00,WNW,294,4.0,4.6,88,0.00,BKN,,0.01,225.0,WeatherDisplay:10.37,2013-08-26 16:55:00,
2013-08-26 10:00:00,60.9,57.3,30.00,WNW,302,2.4,4.6,88,0.00,SCT,,0.01,267.0,WeatherDisplay:10.37,2013-08-26 17:00:00,
2013-08-26 10:05:00,61.0,57.4,30.00,West,275,2.8,5.0,88,0.00,SCT,,0.01,229.0,WeatherDisplay:10.37,2013-08-26 17:05:00,
2013-08-26 10:10:00,61.2,57.6,30.00,SW,229,4.2,9.2,88,0.00,BKN,,0.01,253.0,WeatherDisplay:10.37,2013-08-26 17:10:00,
2013-08-26 10:15:00,61.5,57.9,30.00,SW,231,3.0,7.0,88,0.00,SCT,,0.01,230.0,WeatherDisplay:10.37,2013-08-26 17:15:00,
2013-08-26 10:20:00,61.5,57.6,30.00,WNW,294,3.3,5.8,87,0.00,SCT,,0.01,243.0,WeatherDisplay:10.37,2013-08-26 17:20:00,
2013-08-26 10:25:00,61.3,57.4,30.00,NW,320,3.8,6.9,87,0.00,SCT,,0.01,251.0,WeatherDisplay:10.37,2013-08-26 17:25:00,
2013-08-26 10:30:00,61.3,57.4,30.00,West,281,4.8,10.4,87,0.00,SCT,,0.01,294.0,WeatherDisplay:10.37,2013-08-26 17:30:00,
2013-08-26 10:35:00,61.5,57.9,30.00,West,276,3.0,4.6,88,0.00,FEW,,0.01,446.0,WeatherDisplay:10.37,2013-08-26 17:35:00,
2013-08-26 10:40:00,61.8,57.9,30.00,WNW,297,2.8,5.8,87,0.00,CLR,,0.01,397.0,WeatherDisplay:10.37,2013-08-26 17:40:00,
2013-08-26 10:45:00,62.1,58.2,30.00,NW,304,2.8,3.5,87,0.00,CLR,,0.01,366.0,WeatherDisplay:10.37,2013-08-26 17:45:00,
2013-08-26 10:50:00,62.3,57.7,29.99,WNW,298,5.2,6.9,85,0.00,CLR,,0.01,373.0,WeatherDisplay:10.37,2013-08-26 17:50:00,
2013-08-26 10:55:00,62.4,57.8,29.99,West,272,4.0,5.8,85,0.00,CLR,,0.01,540.0,WeatherDisplay:10.37,2013-08-26 17:55:00,
2013-08-26 11:00:00,62.5,57.6,29.99,SW,235,3.6,4.6,84,0.00,CLR,,0.01,454.0,WeatherDisplay:10.37,2013-08-26 18:00:00,
2013-08-26 11:05:00,62.5,57.9,29.99,WNW,291,3.3,4.0,85,0.00,CLR,,0.01,390.0,WeatherDisplay:10.37,2013-08-26 18:05:00,
2013-08-26 11:10:00,62.4,57.8,29.99,NW,304,5.4,9.2,85,0.00,CLR,,0.01,330.0,WeatherDisplay:10.37,2013-08-26 18:10:00,
2013-08-26 11:15:00,62.4,57.8,29.99,WNW,292,4.7,10.4,85,0.00,CLR,,0.01,373.0,WeatherDisplay:10.37,2013-08-26 18:15:00,
2013-08-26 11:20:00,62.5,57.9,29.99,SW,217,0.6,2.3,85,0.00,CLR,,0.01,552.0,WeatherDisplay:10.37,2013-08-26 18:20:00,
2013-08-26 11:25:00,62.9,58.3,29.99,West,267,3.0,9.2,85,0.00,CLR,,0.01,392.0,WeatherDisplay:10.37,2013-08-26 18:25:00,
2013-08-26 11:30:00,62.9,58.0,29.99,West,262,5.8,9.2,84,0.00,CLR,,0.01,396.0,WeatherDisplay:10.37,2013-08-26 18:30:00,
2013-08-26 11:35:00,63.0,58.4,29.99,West,260,5.1,10.4,85,0.00,CLR,,0.01,388.0,WeatherDisplay:10.37,2013-08-26 18:35:00,
2013-08-26 11:40:00,63.0,58.4,29.99,WNW,301,3.9,5.0,85,0.00,CLR,,0.01,378.0,WeatherDisplay:10.37,2013-08-26 18:40:00,
2013-08-26 11:45:00,63.3,58.7,29.99,SW,228,1.5,3.5,85,0.00,CLR,,0.01,420.0,WeatherDisplay:10.37,2013-08-26 18:45:00,
2013-08-26 11:50:00,63.4,58.1,29.99,WNW,287,3.3,6.9,83,0.00,CLR,,0.01,434.0,WeatherDisplay:10.37,2013-08-26 18:50:00,
2013-08-26 11:55:00,63.5,58.2,29.99,WNW,294,4.5,6.9,83,0.00,CLR,,0.01,510.0,WeatherDisplay:10.37,2013-08-26 18:55:00,
2013-08-26 12:00:00,63.6,58.3,29.99,SW,223,6.6,11.5,83,0.00,CLR,,0.01,550.0,WeatherDisplay:10.37,2013-08-26 19:00:00,
2013-08-26 12:05:00,64.0,58.7,29.99,WSW,256,3.4,4.6,83,0.00,CLR,,0.01,515.0,WeatherDisplay:10.37,2013-08-26 19:05:00,
2013-08-26 12:10:00,64.7,59.4,29.98,WSW,240,7.0,10.0,83,0.00,CLR,,0.01,726.0,WeatherDisplay:10.37,2013-08-26 19:10:00,
2013-08-26 12:15:00,65.2,58.9,29.98,WSW,252,4.9,8.1,80,0.00,CLR,,0.01,664.0,WeatherDisplay:10.37,2013-08-26 19:15:00,
2013-08-26 12:20:00,65.3,59.0,29.98,SW,233,7.7,8.1,80,0.00,CLR,,0.01,909.0,WeatherDisplay:10.37,2013-08-26 19:20:00,
2013-08-26 12:25:00,65.9,59.2,29.98,SW,231,3.3,10.4,79,0.00,CLR,,0.01,891.0,WeatherDisplay:10.37,2013-08-26 19:25:00,
2013-08-26 12:30:00,66.1,59.0,29.98,WNW,296,6.9,11.5,78,0.00,CLR,,0.01,858.0,WeatherDisplay:10.37,2013-08-26 19:30:00,
2013-08-26 12:35:00,66.3,59.2,29.98,SW,236,7.5,10.4,78,0.00,CLR,,0.01,846.0,WeatherDisplay:10.37,2013-08-26 19:35:00,
2013-08-26 12:40:00,66.3,58.9,29.97,SW,223,2.2,6.9,77,0.00,CLR,,0.01,847.0,WeatherDisplay:10.37,2013-08-26 19:40:00,
2013-08-26 12:45:00,66.6,59.5,29.97,WNW,296,3.9,6.9,78,0.00,CLR,,0.01,847.0,WeatherDisplay:10.37,2013-08-26 19:45:00,
2013-08-26 12:50:00,66.3,58.9,29.97,WSW,243,5.4,10.4,77,0.00,CLR,,0.01,847.0,WeatherDisplay:10.37,2013-08-26 19:50:00,
2013-08-26 12:55:00,66.1,58.7,29.97,West,259,8.2,9.2,77,0.00,SCT,,0.01,849.0,WeatherDisplay:10.37,2013-08-26 19:55:00,
2013-08-26 13:00:00,66.3,58.9,29.97,WNW,300,7.6,11.5,77,0.00,OVC,,0.01,847.0,WeatherDisplay:10.37,2013-08-26 20:00:00,
2013-08-26 13:05:00,66.3,58.5,29.97,WNW,302,8.7,11.5,76,0.00,OVC,,0.01,847.0,WeatherDisplay:10.37,2013-08-26 20:05:00,
2013-08-26 13:10:00,65.9,58.1,29.96,West,267,10.8,17.3,76,0.00,OVC,,0.01,846.0,WeatherDisplay:10.37,2013-08-26 20:10:00,
2013-08-26 13:15:00,65.9,58.8,29.96,West,265,7.8,13.8,78,0.00,OVC,,0.01,844.0,WeatherDisplay:10.37,2013-08-26 20:15:00,
2013-08-26 13:20:00,66.2,58.4,29.96,SW,215,8.6,11.5,76,0.00,OVC,,0.01,846.0,WeatherDisplay:10.37,2013-08-26 20:20:00,
2013-08-26 13:25:00,66.6,58.4,29.96,SW,221,10.8,11.5,75,0.00,OVC,,0.01,844.0,WeatherDisplay:10.37,2013-08-26 20:25:00,
2013-08-26 13:30:00,66.9,58.0,29.96,West,266,8.3,13.8,73,0.00,OVC,,0.01,840.0,WeatherDisplay:10.37,2013-08-26 20:30:00,
2013-08-26 13:35:00,66.9,57.2,29.96,SW,223,4.2,15.0,71,0.00,OVC,,0.01,840.0,WeatherDisplay:10.37,2013-08-26 20:35:00,
2013-08-26 13:41:00,67.0,56.9,29.96,WNW,297,6.2,11.5,70,0.00,OVC,,0.01,837.0,WeatherDisplay:10.37,2013-08-26 20:41:00,
2013-08-26 13:46:00,66.9,57.2,29.95,West,259,5.0,11.5,71,0.00,OVC,,0.01,833.0,WeatherDisplay:10.37,2013-08-26 20:46:00,
2013-08-26 13:52:00,67.3,57.2,29.95,West,279,3.4,4.6,70,0.00,OVC,,0.01,828.0,WeatherDisplay:10.37,2013-08-26 20:52:00,
2013-08-26 13:57:00,67.7,57.2,29.95,NW,305,3.1,10.4,69,0.00,OVC,,0.01,824.0,WeatherDisplay:10.37,2013-08-26 20:57:00,
2013-08-26 14:02:00,67.8,56.9,29.95,WSW,245,8.7,12.0,68,0.00,OVC,,0.01,821.0,WeatherDisplay:10.37,2013-08-26 21:02:00,
2013-08-26 14:07:00,68.0,57.0,29.95,West,274,7.4,11.5,68,0.00,OVC,,0.01,816.0,WeatherDisplay:10.37,2013-08-26 21:07:00,
2013-08-26 14:12:00,68.3,57.3,29.95,West,276,8.4,13.8,68,0.00,OVC,,0.01,810.0,WeatherDisplay:10.37,2013-08-26 21:12:00,
2013-08-26 14:17:00,68.2,57.2,29.95,SSW,205,4.7,12.0,68,0.00,OVC,,0.01,803.0,WeatherDisplay:10.37,2013-08-26 21:17:00,
2013-08-26 14:22:00,67.6,56.7,29.95,WSW,237,9.9,13.8,68,0.00,OVC,,0.01,800.0,WeatherDisplay:10.37,2013-08-26 21:22:00,
2013-08-26 14:27:00,67.7,57.6,29.95,West,259,6.3,17.3,70,0.00,OVC,,0.01,791.0,WeatherDisplay:10.37,2013-08-26 21:27:00,
2013-08-26 14:32:00,68.2,57.6,29.95,SSW,208,7.6,12.0,69,0.00,OVC,,0.01,786.0,WeatherDisplay:10.37,2013-08-26 21:32:00,
2013-08-26 14:37:00,68.6,58.0,29.94,WNW,286,6.6,17.0,69,0.00,OVC,,0.01,777.0,WeatherDisplay:10.37,2013-08-26 21:37:00,
2013-08-26 14:42:00,68.7,58.1,29.94,SW,227,3.7,14.0,69,0.00,OVC,,0.01,770.0,WeatherDisplay:10.37,2013-08-26 21:42:00,
2013-08-26 14:47:00,68.9,57.9,29.94,WNW,282,7.2,19.6,68,0.00,OVC,,0.01,761.0,WeatherDisplay:10.37,2013-08-26 21:47:00,
2013-08-26 14:52:00,68.6,58.0,29.94,SW,215,4.9,10.4,69,0.00,OVC,,0.01,756.0,WeatherDisplay:10.37,2013-08-26 21:52:00,
2013-08-26 14:57:00,68.1,57.5,29.94,WSW,240,13.1,19.6,69,0.00,OVC,,0.01,745.0,WeatherDisplay:10.37,2013-08-26 21:57:00,
2013-08-26 15:02:00,68.2,57.6,29.93,WSW,237,8.7,12.7,69,0.00,OVC,,0.01,738.0,WeatherDisplay:10.37,2013-08-26 22:02:00,
2013-08-26 15:07:00,68.5,57.1,29.93,West,273,12.8,18.4,67,0.00,OVC,,0.01,729.0,WeatherDisplay:10.37,2013-08-26 22:07:00,
2013-08-26 15:12:00,68.1,57.1,29.92,WSW,256,11.8,16.1,68,0.00,OVC,,0.01,721.0,WeatherDisplay:10.37,2013-08-26 22:12:00,
2013-08-26 15:17:00,68.1,57.5,29.92,West,267,8.1,8.1,69,0.00,OVC,,0.01,710.0,WeatherDisplay:10.37,2013-08-26 22:17:00,
2013-08-26 15:22:00,68.2,57.2,29.92,SSW,209,12.0,18.4,68,0.00,OVC,,0.01,700.0,WeatherDisplay:10.37,2013-08-26 22:22:00,
2013-08-26 15:27:00,68.1,57.5,29.92,WSW,254,11.0,23.0,69,0.00,OVC,,0.01,691.0,WeatherDisplay:10.37,2013-08-26 22:27:00,
2013-08-26 15:32:00,68.3,57.3,29.92,SW,219,12.3,16.1,68,0.00,OVC,,0.01,682.0,WeatherDisplay:10.37,2013-08-26 22:32:00,
2013-08-26 15:37:00,68.1,57.5,29.92,WSW,257,9.9,16.1,69,0.00,OVC,,0.01,670.0,WeatherDisplay:10.37,2013-08-26 22:37:00,
2013-08-26 15:43:00,68.0,57.4,29.92,WSW,242,10.1,18.4,69,0.00,OVC,,0.01,657.0,WeatherDisplay:10.37,2013-08-26 22:43:00,
2013-08-26 15:48:00,68.0,57.8,29.92,SW,234,7.0,15.0,70,0.00,OVC,,0.01,649.0,WeatherDisplay:10.37,2013-08-26 22:48:00,
2013-08-26 15:53:00,67.9,57.4,29.91,WSW,250,7.5,16.1,69,0.00,OVC,,0.01,636.0,WeatherDisplay:10.37,2013-08-26 22:53:00,
2013-08-26 15:58:00,67.9,57.4,29.92,WSW,251,13.2,21.9,69,0.00,OVC,,0.01,621.0,WeatherDisplay:10.37,2013-08-26 22:58:00,
2013-08-26 16:03:00,67.9,57.4,29.92,West,267,13.2,18.4,69,0.00,OVC,,0.01,610.0,WeatherDisplay:10.37,2013-08-26 23:03:00,
2013-08-26 16:08:00,68.1,57.5,29.92,WSW,247,6.3,20.0,69,0.00,OVC,,0.01,598.0,WeatherDisplay:10.37,2013-08-26 23:08:00,
2013-08-26 16:13:00,68.4,57.4,29.91,East,94,3.9,11.5,68,0.00,OVC,,0.01,587.0,WeatherDisplay:10.37,2013-08-26 23:13:00,
2013-08-26 16:18:00,68.8,57.4,29.91,WSW,237,4.0,11.5,67,0.00,OVC,,0.01,573.0,WeatherDisplay:10.37,2013-08-26 23:18:00,
2013-08-26 16:23:00,68.9,57.5,29.92,WSW,254,7.9,11.5,67,0.00,OVC,,0.01,559.0,WeatherDisplay:10.37,2013-08-26 23:23:00,
2013-08-26 16:28:00,68.5,56.7,29.92,WSW,251,4.8,11.5,66,0.00,OVC,,0.01,545.0,WeatherDisplay:10.37,2013-08-26 23:28:00,
2013-08-26 16:33:00,68.6,57.6,29.92,SW,229,7.9,11.5,68,0.00,OVC,,0.01,531.0,WeatherDisplay:10.37,2013-08-26 23:33:00,
2013-08-26 16:38:00,68.5,57.5,29.92,SW,235,2.2,10.0,68,0.00,OVC,,0.01,519.0,WeatherDisplay:10.37,2013-08-26 23:38:00,
2013-08-26 16:43:00,68.6,57.6,29.92,South,185,7.4,13.8,68,0.00,OVC,,0.01,504.0,WeatherDisplay:10.37,2013-08-26 23:43:00,
2013-08-26 16:48:00,68.9,57.5,29.92,SW,215,6.6,11.5,67,0.00,OVC,,0.01,492.0,WeatherDisplay:10.37,2013-08-26 23:48:00,
2013-08-26 16:53:00,68.9,57.5,29.91,SW,236,9.1,16.1,67,0.00,OVC,,0.01,478.0,WeatherDisplay:10.37,2013-08-26 23:53:00,
2013-08-26 16:58:00,68.6,57.2,29.91,SW,233,9.4,12.7,67,0.00,OVC,,0.01,462.0,WeatherDisplay:10.37,2013-08-26 23:58:00,
2013-08-26 17:03:00,68.6,57.6,29.91,SW,227,1.4,6.9,68,0.00,OVC,,0.01,446.0,WeatherDisplay:10.37,2013-08-27 00:03:00,
2013-08-26 17:08:00,68.8,57.4,29.91,WNW,297,5.7,13.8,67,0.00,OVC,,0.01,432.0,WeatherDisplay:10.37,2013-08-27 00:08:00,
2013-08-26 17:13:00,68.7,57.3,29.91,WSW,244,3.6,12.0,67,0.00,OVC,,0.01,417.0,WeatherDisplay:10.37,2013-08-27 00:13:00,
2013-08-26 17:18:00,68.8,57.4,29.91,South,178,7.1,11.5,67,0.00,OVC,,0.01,401.0,WeatherDisplay:10.37,2013-08-27 00:18:00,
2013-08-26 17:23:00,68.5,57.5,29.91,WSW,258,8.1,14.0,68,0.00,OVC,,0.01,388.0,WeatherDisplay:10.37,2013-08-27 00:23:00,
2013-08-26 17:28:00,67.9,57.4,29.91,WSW,252,1.7,3.5,69,0.00,OVC,,0.01,373.0,WeatherDisplay:10.37,2013-08-27 00:28:00,
2013-08-26 17:33:00,67.9,57.4,29.91,SW,221,4.4,12.0,69,0.00,OVC,,0.01,357.0,WeatherDisplay:10.37,2013-08-27 00:33:00,
2013-08-26 17:38:00,67.7,57.2,29.91,SW,228,4.1,11.0,69,0.00,OVC,,0.01,341.0,WeatherDisplay:10.37,2013-08-27 00:38:00,
2013-08-26 17:43:00,67.8,57.7,29.91,West,260,3.4,9.0,70,0.00,OVC,,0.01,327.0,WeatherDisplay:10.37,2013-08-27 00:43:00,
2013-08-26 17:48:00,67.9,57.8,29.91,SSE,167,1.5,3.5,70,0.00,OVC,,0.01,311.0,WeatherDisplay:10.37,2013-08-27 00:48:00,
2013-08-26 17:53:00,67.9,57.4,29.91,WNW,288,1.2,3.5,69,0.00,OVC,,0.01,295.0,WeatherDisplay:10.37,2013-08-27 00:53:00,
2013-08-26 17:58:00,67.7,57.6,29.91,WNW,294,0.0,0.0,70,0.00,OVC,,0.01,279.0,WeatherDisplay:10.37,2013-08-27 00:58:00,
2013-08-26 18:03:00,67.6,57.5,29.91,West,272,4.8,10.4,70,0.00,OVC,,0.01,265.0,WeatherDisplay:10.37,2013-08-27 01:03:00,
2013-08-26 18:08:00,67.6,57.9,29.91,SW,232,6.8,8.1,71,0.00,OVC,,0.01,251.0,WeatherDisplay:10.37,2013-08-27 01:08:00,
2013-08-26 18:13:00,67.9,57.8,29.90,SW,225,0.5,3.0,70,0.00,OVC,,0.01,236.0,WeatherDisplay:10.37,2013-08-27 01:13:00,
2013-08-26 18:18:00,68.0,57.4,29.91,SW,233,4.1,10.4,69,0.00,OVC,,0.01,220.0,WeatherDisplay:10.37,2013-08-27 01:18:00,
2013-08-26 18:23:00,67.5,57.4,29.90,SW,227,8.5,12.7,70,0.00,OVC,,0.01,206.0,WeatherDisplay:10.37,2013-08-27 01:23:00,
2013-08-26 18:28:00,66.6,57.3,29.90,WNW,282,5.2,5.8,72,0.00,OVC,,0.01,192.0,WeatherDisplay:10.37,2013-08-27 01:28:00,
2013-08-26 18:33:00,66.0,57.1,29.90,SSW,205,7.0,13.8,73,0.00,OVC,,0.01,176.0,WeatherDisplay:10.37,2013-08-27 01:33:00,
2013-08-26 18:38:00,65.6,57.1,29.90,SW,221,6.0,10.4,74,0.00,OVC,,0.01,162.0,WeatherDisplay:10.37,2013-08-27 01:38:00,
2013-08-26 18:43:00,65.4,57.3,29.90,WSW,242,4.6,11.5,75,0.00,OVC,,0.01,146.0,WeatherDisplay:10.37,2013-08-27 01:43:00,
2013-08-26 18:48:00,65.3,57.9,29.90,West,264,3.8,5.8,77,0.00,OVC,,0.01,135.0,WeatherDisplay:10.37,2013-08-27 01:48:00,
2013-08-26 18:53:00,65.3,57.2,29.90,SW,221,3.8,5.8,75,0.00,OVC,,0.01,120.0,WeatherDisplay:10.37,2013-08-27 01:53:00,
2013-08-26 18:58:00,65.3,57.2,29.89,West,270,3.6,10.4,75,0.00,OVC,,0.01,102.0,WeatherDisplay:10.37,2013-08-27 01:58:00,
2013-08-26 19:03:00,65.1,57.0,29.89,WSW,239,3.8,5.0,75,0.00,OVC,,0.01,84.0,WeatherDisplay:10.37,2013-08-27 02:03:00,
2013-08-26 19:08:00,64.9,56.8,29.89,WSW,238,3.1,5.0,75,0.00,OVC,,0.01,69.0,WeatherDisplay:10.37,2013-08-27 02:08:00,
2013-08-26 19:13:00,64.6,56.9,29.90,SW,231,4.6,10.4,76,0.00,OVC,,0.01,54.0,WeatherDisplay:10.37,2013-08-27 02:13:00,
2013-08-26 19:18:00,64.4,56.7,29.90,WSW,238,3.5,4.0,76,0.00,OVC,,0.01,26.0,WeatherDisplay:10.37,2013-08-27 02:18:00,
2013-08-26 19:23:00,64.1,56.7,29.90,WSW,245,4.5,11.5,77,0.00,OVC,,0.01,26.0,WeatherDisplay:10.37,2013-08-27 02:23:00,
2013-08-26 19:28:00,63.9,56.5,29.90,West,269,3.6,5.8,77,0.00,OVC,,0.01,12.0,WeatherDisplay:10.37,2013-08-27 02:28:00,
2013-08-26 19:33:00,63.4,56.4,29.90,WSW,255,1.1,9.2,78,0.00,OVC,,0.01,11.0,WeatherDisplay:10.37,2013-08-27 02:33:00,
2013-08-26 19:38:00,63.1,56.1,29.90,SW,232,5.4,9.2,78,0.00,OVC,,0.01,7.0,WeatherDisplay:10.37,2013-08-27 02:38:00,
2013-08-26 19:43:00,62.5,56.2,29.90,WNW,284,4.2,9.2,80,0.00,OVC,,0.01,5.0,WeatherDisplay:10.37,2013-08-27 02:43:00,
2013-08-26 19:48:00,62.1,56.2,29.90,SSE,156,8.1,10.4,81,0.00,OVC,,0.01,0.0,WeatherDisplay:10.37,2013-08-27 02:48:00,
2013-08-26 19:53:00,61.7,56.1,29.90,WSW,243,6.8,9.2,82,0.00,OVC,,0.01,0.0,WeatherDisplay:10.37,2013-08-27 02:53:00,
2013-08-26 19:58:00,61.4,56.2,29.89,WSW,246,5.4,6.9,83,0.00,OVC,,0.01,0.0,WeatherDisplay:10.37,2013-08-27 02:58:00,
2013-08-26 20:03:00,61.1,56.2,29.89,SW,236,2.4,12.0,84,0.00,OVC,,0.01,0.0,WeatherDisplay:10.37,2013-08-27 03:03:00,
2013-08-26 20:08:00,60.9,56.4,29.90,West,260,7.5,11.5,85,0.00,OVC,,0.01,0.0,WeatherDisplay:10.37,2013-08-27 03:08:00,
2013-08-26 20:13:00,60.8,56.3,29.89,West,264,5.1,9.0,85,0.00,OVC,,0.01,0.0,WeatherDisplay:10.37,2013-08-27 03:13:00,
2013-08-26 20:19:00,60.6,56.4,29.90,West,272,6.1,11.5,86,0.00,OVC,,0.01,0.0,WeatherDisplay:10.37,2013-08-27 03:19:00,
2013-08-26 20:24:00,60.5,56.3,29.90,WNW,293,6.6,11.5,86,0.00,OVC,,0.01,0.0,WeatherDisplay:10.37,2013-08-27 03:24:00,
2013-08-26 20:29:00,60.4,56.5,29.90,WNW,293,6.1,10.4,87,0.00,OVC,,0.01,0.0,WeatherDisplay:10.37,2013-08-27 03:29:00,
2013-08-26 20:34:00,60.4,56.5,29.90,West,273,5.9,10.4,87,0.00,OVC,,0.01,0.0,WeatherDisplay:10.37,2013-08-27 03:34:00,
2013-08-26 20:39:00,60.4,56.5,29.90,WNW,285,2.7,6.9,87,0.00,OVC,,0.01,0.0,WeatherDisplay:10.37,2013-08-27 03:39:00,
2013-08-26 20:44:00,60.4,56.5,29.90,ENE,73,0.8,3.5,87,0.00,OVC,,0.01,0.0,WeatherDisplay:10.37,2013-08-27 03:44:00,
2013-08-26 20:49:00,60.4,56.5,29.90,SSE,152,1.0,2.0,87,0.00,OVC,,0.01,0.0,WeatherDisplay:10.37,2013-08-27 03:49:00,
2013-08-26 20:54:00,60.5,56.6,29.90,WSW,248,6.2,8.1,87,0.00,OVC,,0.01,0.0,WeatherDisplay:10.37,2013-08-27 03:54:00,
2013-08-26 20:59:00,60.5,56.6,29.90,SW,224,5.9,9.2,87,0.00,OVC,,0.01,0.0,WeatherDisplay:10.37,2013-08-27 03:59:00,
2013-08-26 21:01:00,60.5,56.6,29.90,WSW,239,3.4,9.2,87,0.00,OVC,,0.01,0.0,WeatherDisplay:10.37,2013-08-27 04:01:00,
2013-08-26 21:02:00,60.5,56.6,29.90,West,266,2.6,4.6,87,0.00,OVC,,0.01,0.0,WeatherDisplay:10.37,2013-08-27 04:02:00,
2013-08-26 21:07:00,60.5,56.6,29.91,WSW,239,0.5,3.5,87,0.00,OVC,,0.01,0.0,WeatherDisplay:10.37,2013-08-27 04:07:00,
2013-08-26 21:12:00,60.5,56.6,29.90,West,263,1.6,4.6,87,0.00,OVC,,0.01,0.0,WeatherDisplay:10.37,2013-08-27 04:12:00,
2013-08-26 21:17:00,60.5,56.6,29.90,WNW,287,4.7,9.2,87,0.00,OVC,,0.01,0.0,WeatherDisplay:10.37,2013-08-27 04:17:00,
2013-08-26 21:22:00,60.4,56.8,29.90,WNW,298,1.7,3.5,88,0.00,OVC,,0.01,0.0,WeatherDisplay:10.37,2013-08-27 04:22:00,
2013-08-26 21:27:00,60.3,56.7,29.90,West,260,1.8,3.5,88,0.00,OVC,,0.01,0.0,WeatherDisplay:10.37,2013-08-27 04:27:00,
2013-08-26 21:32:00,60.2,56.6,29.91,WSW,256,0.0,0.0,88,0.00,OVC,,0.01,0.0,WeatherDisplay:10.37,2013-08-27 04:32:00,
2013-08-26 21:37:00,60.2,56.6,29.91,WSW,256,0.8,6.0,88,0.00,OVC,,0.01,0.0,WeatherDisplay:10.37,2013-08-27 04:37:00,
2013-08-26 21:42:00,60.2,56.9,29.90,NW,314,2.3,3.5,89,0.00,OVC,,0.01,0.0,WeatherDisplay:10.37,2013-08-27 04:42:00,
2013-08-26 21:47:00,60.2,56.9,29.90,WSW,242,2.7,5.0,89,0.00,OVC,,0.01,0.0,WeatherDisplay:10.37,2013-08-27 04:47:00,
2013-08-26 21:52:00,60.1,56.8,29.90,SW,225,2.1,5.8,89,0.00,OVC,,0.01,0.0,WeatherDisplay:10.37,2013-08-27 04:52:00,
2013-08-26 21:57:00,60.1,56.8,29.90,SW,231,4.9,10.0,89,0.00,OVC,,0.01,0.0,WeatherDisplay:10.37,2013-08-27 04:57:00,
2013-08-26 22:02:00,60.2,56.9,29.91,WSW,256,0.2,5.0,89,0.00,OVC,,0.01,0.0,WeatherDisplay:10.37,2013-08-27 05:02:00,
2013-08-26 22:07:00,60.2,56.9,29.91,WSW,237,4.8,8.1,89,0.00,OVC,,0.01,0.0,WeatherDisplay:10.37,2013-08-27 05:07:00,
2013-08-26 22:12:00,60.1,56.8,29.90,WSW,237,4.6,9.2,89,0.00,OVC,,0.01,0.0,WeatherDisplay:10.37,2013-08-27 05:12:00,
2013-08-26 22:17:00,60.1,56.8,29.90,SW,229,6.7,11.5,89,0.00,OVC,,0.01,0.0,WeatherDisplay:10.37,2013-08-27 05:17:00,
2013-08-26 22:22:00,60.0,57.1,29.90,SW,227,7.5,12.7,90,0.00,OVC,,0.01,0.0,WeatherDisplay:10.37,2013-08-27 05:22:00,
2013-08-26 22:27:00,59.8,56.9,29.90,WSW,253,7.4,11.5,90,0.00,OVC,,0.01,0.0,WeatherDisplay:10.37,2013-08-27 05:27:00,
2013-08-26 22:32:00,59.7,56.8,29.90,SW,223,8.2,12.7,90,0.00,OVC,,0.01,0.0,WeatherDisplay:10.37,2013-08-27 05:32:00,
2013-08-26 22:37:00,59.6,56.7,29.90,WSW,246,5.0,11.5,90,0.00,OVC,,0.01,0.0,WeatherDisplay:10.37,2013-08-27 05:37:00,
2013-08-26 22:42:00,59.5,56.9,29.90,SW,233,5.3,11.5,91,0.00,OVC,,0.01,0.0,WeatherDisplay:10.37,2013-08-27 05:42:00,
2013-08-26 22:47:00,59.4,56.8,29.90,WSW,243,3.8,9.2,91,0.00,OVC,,0.01,0.0,WeatherDisplay:10.37,2013-08-27 05:47:00,
2013-08-26 22:52:00,59.3,56.7,29.90,SW,236,5.3,6.9,91,0.00,OVC,,0.01,0.0,WeatherDisplay:10.37,2013-08-27 05:52:00,
2013-08-26 22:57:00,59.3,56.7,29.90,SW,229,7.8,11.0,91,0.00,OVC,,0.01,0.0,WeatherDisplay:10.37,2013-08-27 05:57:00,
2013-08-26 23:02:00,59.2,56.6,29.90,West,259,9.9,13.8,91,0.00,OVC,,0.01,0.0,WeatherDisplay:10.37,2013-08-27 06:02:00,
2013-08-26 23:07:00,59.1,56.5,29.90,SW,231,6.3,11.5,91,0.00,OVC,,0.01,0.0,WeatherDisplay:10.37,2013-08-27 06:07:00,
2013-08-26 23:12:00,59.1,56.5,29.90,SW,236,6.4,11.5,91,0.00,OVC,,0.01,0.0,WeatherDisplay:10.37,2013-08-27 06:12:00,
2013-08-26 23:17:00,59.0,56.4,29.90,WSW,247,5.5,10.4,91,0.00,OVC,,0.01,0.0,WeatherDisplay:10.37,2013-08-27 06:17:00,
2013-08-26 23:22:00,59.0,56.4,29.90,SW,233,6.0,10.0,91,0.00,OVC,,0.01,0.0,WeatherDisplay:10.37,2013-08-27 06:22:00,
2013-08-26 23:27:00,58.9,56.3,29.89,WSW,248,5.8,9.0,91,0.00,OVC,,0.01,0.0,WeatherDisplay:10.37,2013-08-27 06:27:00,
2013-08-26 23:32:00,58.9,56.3,29.89,WSW,242,4.8,9.2,91,0.00,OVC,,0.01,0.0,WeatherDisplay:10.37,2013-08-27 06:32:00,
2013-08-26 23:37:00,58.9,56.3,29.89,WSW,246,4.4,11.5,91,0.00,OVC,,0.01,0.0,WeatherDisplay:10.37,2013-08-27 06:37:00,
2013-08-26 23:42:00,58.9,56.3,29.89,SW,233,6.6,10.4,91,0.00,OVC,,0.01,0.0,WeatherDisplay:10.37,2013-08-27 06:42:00,
2013-08-26 23:47:00,58.9,56.3,29.89,SW,227,4.0,8.0,91,0.00,OVC,,0.01,0.0,WeatherDisplay:10.37,2013-08-27 06:47:00,
2013-08-26 23:52:00,59.0,56.4,29.89,WSW,250,2.4,4.6,91,0.00,OVC,,0.01,0.0,WeatherDisplay:10.37,2013-08-27 06:52:00,
2013-08-26 23:57:00,58.9,56.3,29.89,SW,228,3.1,7.0,91,0.00,OVC,,0.01,0.0,WeatherDisplay:10.37,2013-08-27 06:57:00,